Location: *
(35.8942°N, 23.3025°E)
Time: 22:46:47
(UTC+00:00)

GPS 2-04 Rocket1 - Pass Details

Date: 21 September 2021
Orbit: 414 x 536 km, 35.6° (Epoch: 22 October)

Event Time Altitude Azimuth Distance (km) Brightness Sun altitude
Exits shadow 02:32:57 66° 190° (S) 546 2.6 -21.0°
Maximum altitude 02:33:09 67° 168° (SSE) 540 2.6 -20.9°
Drops below altitude 10° 02:37:06 10° 85° (E) 1,730 6.5 -20.2°
Sets 02:39:23 0° 83° (E) 2,635 7.9 -19.7°
